PROFILE

 METAR AND TAF INFORMATION
ADDS - METARS form results

(0217 UTC 20 February 2020)
http://aviationweather.gov/metar/data/
 
GOBD 200200Z 36015KT CAVOK 24/13 Q1010 NOSIG
GOBD 200130Z 01015KT CAVOK 24/14 Q1010 NOSIG
TAF GOBD 192322Z 2000/2106 36016KT CAVOK 

 AIRPORT MAP

 RUNWAY INFORMATION
Runway 01 Runway length 11483 ft Runway width 197 ft
Runway elevation 272 ft Runway displaced threshold 0 ft Runway heading 7
Runway 19 Runway length 11483 ft Runway width 197 ft
Runway elevation 251 ft Runway displaced threshold 0 ft Runway heading 187

 AIRPORT FREQUENCIES
Type GND Name Dakar GND Frequency 121.8 MHZ
Type A/D Name Dakar TWR Frequency 118.8 MHZ
Type ATIS Name Dakar ATIS Frequency 126.6 MHZ
Type APP Name Dakar APP Frequency 120.5 MHZ

 AIRPORT NEAR NAVIGATION AIDS